Regional Weather Roundup
Issued by NWS

Home | Current Version | Previous Version | Graphics & Text | Print | Product List | Glossary On
Versions: 1 2 3 4 5 6 7 8 9 10 11 12 13 14 15 16 17 18 19 20 21 22 23 24 25 26 27 28 29 30 31 32 33 34 35 36 37 38 39 40 41 42 43 44 45 46 47 48 49 50
000
ASUS45 KBOU 192307
RWRCO

WEATHER ROUNDUP FOR COLORADO
NATIONAL WEATHER SERVICE DENVER/BOULDER CO
500 PM MDT TUE AUG 19 2014

NOTE: "FAIR" INDICATES FEW OR NO CLOUDS BELOW 12000 FEET WITH NO
SIGNIFICANT WEATHER AND/OR OBSTRUCTIONS TO VISIBILITY.

COZ001>005-013-030-031-200000-
...NORTHWEST COLORADO...

CITY           SKY/WX    TMP DP  RH WIND       PRES   REMARKS
CRAIG          MOSUNNY   70  51  51 NE6       30.03F
HAYDEN         MOSUNNY   70  48  46 CALM      30.05F
MEEKER         CLOUDY    68  52  56 CALM      30.03F
MOUNT WERNER   NOT AVBL
STEAMBOAT SPGS MOSUNNY   68  49  50 CALM      30.07F
WALDEN         PTSUNNY   70  36  28 SW6       30.11F
$$

COZ006>008-011-200000-
...WEST CENTRAL VALLEYS...

CITY           SKY/WX    TMP DP  RH WIND       PRES   REMARKS
GRAND JUNCTION CLOUDY    73  52  47 NW14      29.91F
MONTROSE       LGT RAIN  76  47  35 VRB6      29.96R
EAGLE          PTSUNNY   73  45  35 SE23G41     N/A
RIFLE          PTSUNNY   82  47  29 NW12      29.91F
DELTA          PTSUNNY   85  47  26 W10       29.89F
NUCLA          CLOUDY    81  43  26 SW16G23   29.98S
$$

COZ017>023-064>068-200000-
...SOUTHWEST COLORADO...

CITY           SKY/WX    TMP DP  RH WIND       PRES   REMARKS
DURANGO        CLOUDY    74  44  34 W17       30.04F
CORTEZ         MOSUNNY   69  55  60 SW20      30.08R
PAGOSA SPRINGS CLOUDY    73  34  24 CALM      30.11F
TELLURIDE      CLOUDY    68  39  34 S12G22    30.18F
WOLF CREEK PAS NOT AVBL
$$

COZ009-010-012-014-032>034-037-058>063-200000-
...CENTRAL COLORADO...

CITY           SKY/WX    TMP DP  RH WIND       PRES   REMARKS
ASPEN          PTSUNNY   59  49  69 VRB6G18   30.14F
BUENA VISTA    CLOUDY    63  44  50 CALM      30.16S
COPPER MTN     LGT RAIN  52  37  58 S8G18     30.45R
BERTHOUD PASS  TSTM      41  41 100 SW7       30.49R
COTTONWOOD PAS CLOUDY    59  41  51 W14G22    30.28F
GUNNISON       PTSUNNY   68  43  40 N9        30.13F
KREMMLING      MOSUNNY   81  30  16 W14G21    30.04F
LEADVILLE      CLOUDY    56  40  55 CALM      30.29S
MONARCH PASS   CLOUDY    50  41  71 CALM      30.54S
SALIDA         CLOUDY    64  52  64 N6        30.19S
SUNLIGHT       PTSUNNY   59  46  63 CALM      30.34S
WILKERSON PASS CLOUDY    55  36  47 SW9G16    30.42S
$$

COZ069>075-200000-
...SAN LUIS VALLEY/SANGRE DE CRISTO MOUNTAINS...

CITY           SKY/WX    TMP DP  RH WIND       PRES   REMARKS
ALAMOSA        PTSUNNY   76  40  27 W15       30.08F
LA VETA PASS   PTSUNNY   68  34  28 SW6       30.30S
SAGUACHE       CLOUDY    72  39  30 S15       30.11S
$$

COZ035-036-038>040-200000-
...NORTHERN COLORADO FRONT RANGE...

CITY           SKY/WX    TMP DP  RH WIND       PRES   REMARKS
DENVER INTL AP TSTM      69  57  65 SW20G29   29.95R
DMNS CITY PARK   N/A     74  52  46 S5G12     29.96F
AURORA         LGT RAIN  66  59  77 S8        30.01R
FRONT RANGE AP NOT AVBL
ERIE MUNI ARPT PTSUNNY   82  43  25 W8        29.89F
BOULDER MUN AP PTSUNNY   75  46  35 W14G21    29.91F
CENTENNIAL     PTSUNNY   68  58  70 W5        30.00S
BROOMFIELD     PTSUNNY   81  46  30 W9        29.97F
FORT COLLINS   PTSUNNY   84  48  28 N16       29.89S
LONGMONT       PTSUNNY   79  47  32 SW8       29.90F
$$

COZ041-046-047-076>085-087-088-200000-
...PIKES PEAK/PALMER DIVIDE AND SOUTHERN FOOTHILLS...

CITY           SKY/WX    TMP DP  RH WIND       PRES   REMARKS
COLO. SPRINGS  PTSUNNY   76  48  37 NW20      30.00R
A. F. ACADEMY  LGT RAIN  70  45  40 VRB5G24   30.03R
ELLICOTT       PTSUNNY   78  47  33 N8        29.97R
FALCON         PTSUNNY   73  46  38 CALM      30.06R
FORT CARSON    CLOUDY    77  52  41 E2        29.97R
LIMON          PTSUNNY   88  38  17 SW13G22   29.88S
MONUMENT HILL  CLOUDY    70  46  43 NW16      30.07R
TRINIDAD       CLOUDY    76  48  37 W13       29.98R
$$

COZ042>045-048>051-090-091-200000-
...NORTHEAST COLORADO...

CITY           SKY/WX    TMP DP  RH WIND       PRES   REMARKS
GREELEY ARPT   PTSUNNY   84  46  26 N20G30    29.87S
AKRON          MOSUNNY   89  48  24 E14       29.83F
BURLINGTON     SUNNY     92  45  19 S16G22    29.81F
WRAY             N/A     95  52  23 E14       29.77F
STERLING       MOSUNNY   95  59  30 S10       29.78S
HOLYOKE        NOT AVBL
FORT MORGAN    MOSUNNY   90  41  18 CALM      29.83F
$$

COZ086-089-092>099-200000-
...SOUTHEAST COLORADO...

CITY           SKY/WX    TMP DP  RH WIND       PRES   REMARKS
PUEBLO         PTSUNNY   89  42  19 S21G28    29.85R
LA JUNTA       PTSUNNY   85  51  31 S21G31    29.83R
LAMAR          MOSUNNY   94  45  18 SW26G33   29.77R
SPRINGFIELD      N/A     91  42  18 S16       29.85F
$$


USA.gov is the U.S. government's official web portal to all federal, state and local government web resources and services.